Precipitable_Water
1.65 1.66 1.57 1.48 1.47 1.55 1.64 1.71 1.76 1.78 1.85 1.83 1.91 1.90 1.85 1.86 1.70 1.63 1.68 1.73 1.78 1.88 1.91 1.83 1.79 1.80 1.74 1.74 1.82 1.71 1.67 1.73 1.53 1.64 1.76 1.74 1.70 1.71 1.83 2.00 1.98 1.86 1.77
1.61 1.68 1.68 1.64 1.53 1.44 1.48 1.61 1.74 1.76 1.79 1.83 1.81 1.77 1.70 1.67 1.59 1.58 1.69 1.81 1.87 1.88 1.74 1.75 1.76 1.82 1.77 1.72 1.69 1.65 1.67 1.75 1.57 1.45 1.63 1.63 1.59 1.79 1.89 1.97 1.91 1.68 1.51
1.53 1.60 1.66 1.67 1.61 1.44 1.44 1.50 1.63 1.71 1.76 1.76 1.78 1.77 1.76 1.72 1.61 1.59 1.65 1.76 1.80 1.77 1.70 1.68 1.69 1.70 1.62 1.58 1.60 1.56 1.59 1.67 1.71 1.64 1.53 1.63 1.56 1.71 1.86 2.01 1.90 1.70 1.61
1.48 1.52 1.59 1.64 1.61 1.49 1.48 1.49 1.48 1.63 1.68 1.70 1.73 1.74 1.75 1.78 1.68 1.55 1.54 1.71 1.75 1.73 1.73 1.74 1.68 1.60 1.52 1.50 1.52 1.52 1.53 1.45 1.44 1.41 1.44 1.45 1.50 1.72 1.94 1.96 1.72 1.72 1.58
1.48 1.47 1.57 1.66 1.68 1.53 1.47 1.50 1.52 1.48 1.59 1.66 1.66 1.67 1.70 1.72 1.69 1.49 1.50 1.65 1.68 1.68 1.69 1.65 1.65 1.66 1.63 1.66 1.67 1.71 1.73 1.67 1.64 1.59 1.48 1.45 1.47 1.66 1.81 2.00 1.77 1.67 1.79
1.45 1.41 1.57 1.65 1.66 1.55 1.53 1.52 1.51 1.47 1.44 1.56 1.58 1.57 1.55 1.59 1.57 1.46 1.52 1.61 1.61 1.57 1.58 1.64 1.70 1.73 1.76 1.75 1.81 1.89 1.87 1.74 1.70 1.73 1.72 1.74 1.71 1.83 1.98 1.88 1.78 1.73 1.57
1.41 1.46 1.55 1.66 1.64 1.63 1.59 1.60 1.50 1.39 1.44 1.41 1.50 1.52 1.49 1.52 1.52 1.46 1.41 1.39 1.46 1.52 1.55 1.61 1.69 1.82 1.91 1.89 1.87 1.69 1.60 1.62 1.63 1.65 1.65 1.76 1.77 1.86 1.93 1.82 1.73 1.67 1.59
1.42 1.50 1.60 1.67 1.68 1.69 1.63 1.61 1.55 1.48 1.40 1.38 1.40 1.45 1.48 1.51 1.52 1.48 1.45 1.44 1.43 1.51 1.60 1.72 1.84 1.93 1.91 1.77 1.63 1.59 1.54 1.49 1.52 1.67 1.82 1.85 1.81 1.83 1.91 1.83 1.69 1.49 1.34
1.42 1.52 1.59 1.67 1.69 1.70 1.64 1.62 1.58 1.58 1.52 1.45 1.44 1.43 1.42 1.44 1.49 1.46 1.47 1.48 1.49 1.58 1.72 1.85 1.90 1.82 1.71 1.62 1.58 1.50 1.45 1.40 1.54 1.78 1.95 1.89 1.78 1.64 1.63 1.49 1.25 1.10 0.99
1.53 1.59 1.68 1.70 1.70 1.70 1.74 1.68 1.64 1.63 1.60 1.61 1.55 1.52 1.50 1.51 1.59 1.57 1.58 1.58 1.55 1.62 1.76 1.83 1.79 1.73 1.69 1.61 1.46 1.41 1.29 1.31 1.42 1.54 1.75 1.76 1.67 1.60 1.56 1.47 1.32 1.15 1.11
1.74 1.75 1.73 1.75 1.77 1.83 1.85 1.87 1.78 1.63 1.62 1.64 1.64 1.67 1.63 1.64 1.67 1.66 1.68 1.68 1.74 1.78 1.78 1.77 1.77 1.60 1.46 1.36 1.25 1.27 1.27 1.32 1.36 1.38 1.46 1.54 1.55 1.55 1.51 1.50 1.46 1.31 1.16
1.71 1.72 1.73 1.76 1.86 2.00 1.99 1.94 1.93 1.83 1.67 1.64 1.67 1.71 1.83 1.86 1.82 1.85 1.92 1.92 2.00 1.91 1.82 1.73 1.56 1.43 1.26 1.18 1.17 1.19 1.24 1.33 1.35 1.31 1.29 1.30 1.34 1.31 1.37 1.39 1.40 1.37 1.36
1.35 1.44 1.45 1.52 1.56 1.70 1.76 2.05 2.05 1.89 1.76 1.64 1.61 1.66 1.64 1.76 1.81 1.80 1.83 1.88 1.98 1.99 1.78 1.56 1.35 1.19 1.11 1.08 1.14 1.22 1.32 1.36 1.35 1.30 1.26 1.19 1.23 1.23 1.23 1.26 1.31 1.32 1.36
1.19 1.24 1.26 1.27 1.36 1.44 1.61 1.61 2.32 2.16 1.86 1.77 1.82 1.71 1.65 1.77 1.76 1.70 1.66 1.71 1.62 1.80 1.62 1.31 1.17 1.07 1.08 1.16 1.25 1.39 1.38 1.31 1.21 1.14 1.11 1.15 1.18 1.20 1.24 1.31 1.26 1.28 1.23
1.29 1.29 1.28 1.32 1.40 1.44 1.46 1.52 1.58 1.85 1.84 2.00 1.84 1.88 1.70 1.53 1.52 1.50 1.41 1.33 1.42 1.56 1.35 1.13 1.02 0.97 1.00 1.09 1.16 1.17 1.17 1.09 1.04 1.11 1.11 1.12 1.19 1.22 1.25 1.33 1.31 1.27 1.20
1.28 1.27 1.30 1.27 1.29 1.33 1.34 1.34 1.44 1.48 1.55 1.65 1.72 1.58 1.54 1.48 1.41 1.30 1.30 1.35 1.50 1.31 1.05 0.96 0.96 0.95 1.02 1.11 1.07 1.13 1.00 1.06 1.12 1.10 1.09 1.16 1.22 1.25 1.27 1.31 1.34 1.30 1.19
1.09 1.20 1.29 1.27 1.22 1.25 1.25 1.30 1.26 1.38 1.40 1.42 1.49 1.49 1.44 1.39 1.39 1.34 1.33 1.50 1.31 1.10 0.92 0.91 0.91 0.98 1.06 1.03 0.88 0.84 0.86 1.00 1.06 1.04 1.06 1.14 1.22 1.26 1.24 1.22 1.22 1.24 1.21
1.00 0.97 0.98 1.07 1.17 1.23 1.23 1.24 1.32 1.27 1.23 1.28 1.38 1.36 1.39 1.41 1.34 1.31 1.36 1.23 1.08 1.04 0.98 0.91 0.89 0.91 0.85 0.76 0.72 0.79 0.88 0.96 0.99 1.01 1.04 1.11 1.15 1.15 1.16 1.15 1.16 1.17 1.20
0.91 0.90 1.01 0.94 0.97 1.02 1.20 1.22 1.23 1.29 1.34 1.37 1.37 1.33 1.28 1.27 1.28 1.30 1.30 1.19 1.06 0.97 0.94 0.93 0.92 0.83 0.77 0.75 0.75 0.84 0.89 0.92 0.96 0.97 0.99 1.02 1.06 1.09 1.09 1.13 1.14 1.18 1.19
0.89 0.85 0.87 0.94 0.99 0.92 0.99 1.08 1.13 1.19 1.30 1.35 1.34 1.27 1.25 1.25 1.19 1.14 1.18 1.20 1.11 1.06 0.98 0.85 0.80 0.78 0.75 0.76 0.81 0.88 0.89 0.92 0.92 0.95 0.98 1.01 1.06 1.08 1.00 1.00 1.01 1.02 1.07
0.82 0.83 0.89 0.91 0.85 0.91 0.91 0.98 1.09 1.16 1.25 1.32 1.35 1.40 1.32 1.24 1.15 1.17 1.14 1.14 1.06 1.04 0.94 0.83 0.79 0.78 0.79 0.75 0.81 0.85 0.90 0.91 0.91 0.94 0.97 0.98 0.98 0.92 0.93 0.93 0.93 0.96 0.97
0.85 0.81 0.78 0.80 0.97 0.88 0.87 0.97 1.08 1.14 1.18 1.28 1.33 1.38 1.39 1.33 1.22 1.17 1.16 1.15 1.17 1.05 0.96 0.86 0.77 0.80 0.81 0.81 0.78 0.81 0.86 0.87 0.90 0.92 0.94 0.92 0.89 0.84 0.82 0.83 0.83 0.86 0.88
0.88 0.83 0.84 0.87 0.93 0.89 0.91 0.99 1.04 1.12 1.19 1.20 1.33 1.33 1.38 1.29 1.20 1.20 1.17 1.18 1.17 1.06 1.01 0.90 0.82 0.84 0.90 0.89 0.84 0.81 0.82 0.81 0.86 0.91 0.90 0.86 0.81 0.80 0.79 0.76 0.76 0.75 0.75
0.88 0.88 0.96 1.04 0.97 0.96 0.97 1.02 1.05 1.19 1.26 1.28 1.30 1.33 1.30 1.28 1.25 1.22 1.19 1.20 1.22 1.13 1.07 0.99 0.97 0.95 0.97 0.97 0.94 0.86 0.87 0.89 0.90 0.90 0.89 0.82 0.78 0.71 0.71 0.70 0.71 0.72 0.71
0.96 1.01 1.05 1.11 1.05 0.98 0.96 1.00 1.07 1.16 1.30 1.29 1.31 1.37 1.38 1.36 1.34 1.26 1.22 1.21 1.23 1.18 1.10 1.06 1.11 1.12 1.10 1.05 0.99 0.94 0.90 0.86 0.85 0.83 0.84 0.80 0.72 0.68 0.66 0.63 0.64 0.62 0.62
1.04 1.11 1.13 1.17 1.07 1.06 1.00 1.00 1.11 1.19 1.23 1.28 1.29 1.39 1.43 1.39 1.37 1.32 1.33 1.29 1.20 1.17 1.12 1.10 1.17 1.19 1.20 1.12 1.06 1.00 0.87 0.82 0.82 0.82 0.87 0.84 0.80 0.77 0.77 0.73 0.72 0.69 0.68
Wind_Speed
14 13 12 12 13 14 14 16 19 20 19 20 20 18 18 18 18 17 17 16 15 15 14 14 13 13 13 13 14 14 15 15 16 16 16 16 16 16 15 15 15 15 16
16 15 14 13 13 14 15 15 16 19 20 20 20 20 19 19 18 18 17 16 16 15 14 14 14 14 15 15 16 17 17 17 18 19 19 19 18 17 17 18 18 17 17
17 17 16 16 15 15 15 15 16 17 19 20 20 20 20 19 18 19 18 17 16 16 15 15 15 15 16 16 17 17 18 19 19 20 21 20 20 20 20 20 19 19 19
16 17 17 16 16 16 15 15 16 16 18 19 19 20 20 19 19 19 18 18 17 17 17 17 17 17 18 18 18 19 19 20 21 22 23 22 22 21 22 22 20 20 20
16 16 17 16 16 16 16 16 16 17 17 18 19 19 20 20 19 19 19 18 18 18 18 18 18 19 19 20 20 21 22 23 24 25 25 25 24 24 22 22 21 21 21
18 17 18 18 16 16 16 17 17 17 18 18 19 19 20 20 20 20 19 18 18 19 19 19 20 20 21 22 23 23 25 27 28 29 29 28 27 26 25 25 24 24 24
18 17 17 19 18 17 17 17 17 18 18 19 19 20 20 20 20 19 20 20 19 19 20 21 22 22 22 23 24 25 27 29 31 33 32 32 31 29 28 28 27 27 27
19 18 18 18 20 19 19 19 18 18 18 19 19 20 20 20 20 20 20 20 21 21 22 22 23 24 24 25 26 28 29 28 29 31 33 34 34 31 29 29 29 29 30
21 20 19 19 20 21 21 21 20 19 19 19 20 20 20 20 20 20 21 21 22 23 23 23 24 24 24 25 27 28 28 28 28 28 27 27 29 30 30 30 30 29 29
22 22 21 21 22 22 23 23 23 22 21 20 20 21 21 21 21 21 22 22 23 23 23 24 24 25 25 27 28 28 29 28 27 25 22 22 24 27 29 29 30 30 29
22 23 22 22 23 24 24 25 25 24 23 23 22 22 22 23 23 23 24 25 25 24 25 24 25 26 27 28 29 29 29 28 28 26 25 24 24 25 27 28 29 30 30
24 22 23 22 21 22 25 27 27 27 26 25 24 24 23 22 23 24 25 26 26 25 25 25 25 26 28 29 29 28 27 27 26 25 24 25 25 25 26 28 29 31 31
28 29 32 30 28 27 27 30 31 29 28 28 28 27 25 25 25 24 24 25 26 26 25 25 25 27 27 26 25 25 24 23 23 23 23 23 24 25 26 26 27 27 28
30 30 31 31 34 32 28 39 21 20 29 31 28 26 25 27 27 28 30 32 29 29 26 25 25 24 22 22 20 19 18 19 19 20 20 21 22 21 22 22 22 21 21
29 30 30 30 29 30 28 26 25 27 31 23 22 23 24 27 28 32 33 35 34 27 24 22 21 19 17 16 15 16 16 16 16 17 18 18 18 18 18 17 17 17 17
30 30 29 29 29 28 28 27 27 27 27 28 28 26 26 28 29 29 28 27 23 23 20 19 18 17 16 15 15 15 14 14 14 14 15 15 15 14 14 13 13 14 13
31 31 30 29 30 31 30 29 29 29 29 30 30 30 30 29 26 25 22 18 20 20 19 18 17 15 14 13 13 12 12 12 12 13 13 12 12 13 13 13 13 13 12
32 31 31 31 30 30 31 32 32 31 30 29 29 29 28 28 26 22 18 18 18 18 18 17 16 15 14 13 13 13 12 12 12 12 11 11 12 12 12 11 11 10 9
36 35 34 34 34 33 32 31 32 34 33 31 29 27 25 22 21 19 17 19 19 18 17 17 16 15 15 14 13 13 13 12 12 12 12 13 13 12 11 10 10 9 8
38 39 38 36 36 36 35 34 33 32 32 32 30 28 26 24 23 22 21 20 19 19 17 17 17 16 15 15 14 14 13 13 13 13 13 13 12 12 11 10 10 9 9
36 36 37 38 38 37 36 35 34 32 31 30 29 28 27 26 25 25 24 24 21 21 20 18 17 17 16 15 15 15 15 15 14 14 14 13 12 12 11 11 10 9 9
33 33 34 36 35 36 36 35 34 33 32 32 30 29 29 28 26 26 25 25 23 22 20 19 18 18 17 16 16 16 16 15 15 14 14 12 12 12 11 10 9 8 8
31 32 32 32 33 34 34 34 33 33 32 32 32 31 30 30 28 27 26 24 23 23 22 20 19 18 17 17 16 16 16 16 15 14 13 12 11 11 10 10 9 9 8
29 28 28 29 29 30 31 31 32 32 32 31 32 31 30 31 30 29 27 26 25 24 23 22 21 20 18 17 17 17 16 15 14 13 13 12 12 11 11 10 10 10 10
27 26 26 26 27 29 29 30 30 31 31 31 31 32 32 31 32 31 29 27 26 26 25 24 22 21 20 19 18 18 16 16 15 14 14 13 13 13 12 12 12 11 11
24 24 24 25 26 27 28 28 29 30 30 30 29 31 32 32 32 31 30 30 29 28 27 25 24 23 22 21 20 19 18 18 18 17 16 15 15 15 15 15 14 14 14
Wind_Direction
222 222 222 224 226 226 225 223 223 225 225 226 227 228 231 234 236 237 241 245 249 255 258 256 258 264 268 272 272 273 273 274 277 280 281 282 281 281 277 277 282 281 278
226 227 227 228 227 228 229 228 227 226 227 229 230 232 234 235 236 237 239 244 249 254 255 255 260 267 270 273 275 275 275 276 276 277 279 281 279 279 277 276 280 279 279
227 228 230 231 231 230 230 230 230 230 229 230 231 232 234 234 236 238 240 245 248 249 253 258 265 269 272 275 276 278 278 278 278 277 278 278 278 277 276 277 276 276 277
227 229 230 231 234 233 233 233 233 232 231 231 232 233 234 235 237 238 240 244 248 252 257 263 267 270 272 276 277 278 279 280 280 278 277 277 276 277 276 274 275 274 276
230 231 231 233 235 235 234 236 236 235 234 233 233 234 234 236 239 239 242 246 252 257 261 265 268 271 274 276 278 280 280 281 280 279 277 276 275 277 273 272 271 276 279
230 233 232 232 235 236 236 237 238 238 237 236 235 235 236 238 240 241 244 249 254 259 263 266 271 274 276 276 279 280 281 282 282 280 274 273 274 274 274 274 274 275 278
230 233 235 233 234 236 237 239 240 239 239 238 238 238 239 240 241 243 245 250 256 261 265 270 273 276 277 278 280 283 285 287 284 281 274 270 271 272 273 274 273 274 275
230 235 238 237 236 237 239 240 240 240 239 239 239 239 239 242 242 243 247 252 259 263 268 272 275 277 279 280 282 284 287 291 291 286 277 271 265 267 268 272 273 274 275
234 238 240 240 240 240 240 240 240 240 240 239 240 240 240 243 244 246 250 256 261 265 269 273 276 278 279 282 285 286 287 290 294 293 285 275 261 262 268 270 271 273 274
238 239 241 242 243 243 242 240 239 239 240 241 241 241 242 245 248 251 254 259 264 268 271 273 275 278 281 284 286 286 286 288 291 289 286 281 266 267 270 269 271 271 272
242 241 243 245 247 248 245 242 241 239 239 240 242 243 245 248 253 255 258 261 265 268 272 274 277 279 282 284 284 284 285 286 286 283 283 279 276 274 274 272 270 270 270
241 242 244 244 247 252 248 244 241 239 239 240 242 244 247 251 257 261 263 263 266 268 273 277 279 282 285 285 284 284 283 283 282 280 281 281 279 279 280 277 273 271 269
249 250 251 254 252 252 254 253 239 236 238 240 240 242 247 253 257 261 265 269 269 270 273 276 280 285 286 286 284 284 283 281 279 279 282 284 283 284 285 283 279 274 269
255 256 256 259 256 260 263 272 255 238 242 241 238 238 244 251 256 262 268 270 279 273 271 275 280 284 285 285 286 284 284 285 282 282 284 287 289 288 288 288 283 277 273
257 259 259 261 260 256 263 254 257 254 256 260 258 252 255 267 267 273 280 274 270 252 263 271 276 279 281 283 284 289 287 289 286 286 288 291 293 293 293 289 285 281 275
257 257 257 259 259 258 256 254 256 256 258 261 262 261 262 271 269 275 279 275 252 241 253 262 268 273 273 278 286 288 288 290 292 292 292 293 294 297 300 298 293 282 281
256 257 257 257 258 258 257 256 257 256 258 259 260 261 264 267 267 269 275 265 223 230 248 258 262 266 270 274 283 288 291 292 296 297 294 298 300 298 299 298 297 292 282
254 256 256 256 256 256 255 254 254 255 257 255 256 259 261 260 262 258 248 227 227 236 247 252 255 259 265 270 277 282 286 289 293 295 296 300 301 302 302 304 303 300 292
254 255 254 254 255 255 254 253 253 253 253 255 251 256 253 251 246 242 238 230 231 238 244 247 250 256 261 266 273 277 282 284 288 290 290 294 298 299 299 299 299 296 290
253 254 254 254 253 253 252 252 252 252 251 248 248 246 242 239 238 234 235 234 236 241 243 247 250 254 258 262 267 272 276 280 283 286 288 291 293 294 295 294 294 289 284
252 253 252 252 252 250 251 249 248 247 246 244 241 238 233 234 234 234 235 235 242 242 242 247 250 253 256 260 264 268 272 276 279 281 283 283 285 289 290 290 288 284 279
251 253 253 252 249 247 247 246 244 243 242 240 238 234 232 234 234 233 235 234 237 239 242 247 249 252 255 258 263 267 271 274 275 275 276 277 280 283 285 284 282 279 273
251 254 253 250 247 244 242 241 241 240 238 237 235 231 231 230 231 231 231 233 236 238 242 245 248 252 255 258 262 265 268 270 270 269 269 270 272 275 277 278 276 271 267
250 252 251 247 243 239 238 238 238 236 234 232 232 230 229 228 230 229 232 235 237 238 240 243 247 250 254 257 260 264 264 264 263 262 263 264 267 269 272 274 273 270 265
247 249 245 242 240 238 237 236 234 232 231 230 230 230 230 228 228 229 232 235 237 239 240 240 245 250 253 255 259 261 259 256 256 256 259 261 263 265 267 269 270 267 264
242 242 242 243 241 237 235 232 233 230 229 230 230 229 228 227 227 230 233 237 238 240 236 239 246 251 253 253 255 257 255 253 251 253 258 260 262 265 266 266 265 266 263